This is the latest recevied weather packets stored in our database for station/object KE5VBO-1. If no packets are shown the sender has not sent any weather packets the latest 10 day(s).
| Time | Temp. | Humidity | Pressure | Rain* | Wind** | Luminosity | Snow |
|---|---|---|---|---|---|---|---|
| 1777950959 | 22.78° C | 6% | 1004.2 hPa | 0 mm | - | - | - |
| 1777950008 | 23.33° C | 9% | 1004.1 hPa | 0 mm | - | - | - |
| 1777949149 | 23.33° C | 13% | 1004 hPa | 0 mm | - | - | - |
| 1777948265 | 23.33° C | 16% | 1004 hPa | 0 mm | - | - | - |
| 1777947336 | 23.33° C | 19% | 1003.9 hPa | 0 mm | - | - | - |
| 1777946470 | 23.33° C | 21% | 1003.9 hPa | 0 mm | - | - | - |
| 1777945536 | 23.89° C | 24% | 1003.9 hPa | 0 mm | - | - | - |
| 1777944664 | 23.89° C | 28% | 1004 hPa | 0 mm | - | - | - |
| 1777943728 | 23.89° C | 32% | 1004 hPa | 0 mm | - | - | - |
| 1777942865 | 24.44° C | 36% | 1003.9 hPa | 0 mm | - | - | - |
| 1777941922 | 24.44° C | 40% | 1003.9 hPa | 0 mm | - | - | - |
| 1777941057 | 25° C | 41% | 1004 hPa | 0 mm | - | - | - |
| 1777940116 | 25° C | 46% | 1004.2 hPa | 0 mm | - | - | - |
| 1777939255 | 25.56° C | 46% | 1004 hPa | 0 mm | - | - | - |
| 1777938317 | 25.56° C | 47% | 1004 hPa | 0 mm | - | - | - |
| 1777937457 | 25.56° C | 49% | 1004.2 hPa | 0 mm | - | - | - |
| 1777936524 | 26.11° C | 51% | 1004.3 hPa | 0 mm | - | - | - |
| 1777935662 | 26.67° C | 51% | 1004.4 hPa | 0 mm | - | - | - |
| 1777934736 | 26.67° C | 52% | 1004.7 hPa | 0 mm | - | - | - |
| 1777933866 | 26.67° C | 52% | 1004.6 hPa | 0 mm | - | - | - |
| 1777932924 | 26.67° C | 52% | 1004.6 hPa | 0 mm | - | - | - |
| 1777932052 | 26.67° C | 53% | 1004.7 hPa | 0 mm | - | - | - |
| 1777931103 | 26.67° C | 53% | 1004.9 hPa | 0 mm | - | - | - |
| 1777930243 | 26.67° C | 53% | 1005.3 hPa | 0 mm | - | - | - |
| 1777929314 | 27.22° C | 53% | 1005.5 hPa | 0 mm | - | - | - |
* Rain latest hour (hover to see other rain measurements)
** Current wind speed in m/s (hover to see current wind gust speed)